Regional Weather Roundup
Issued by NWS Goodland, KS

Home | Current Version | Previous Version | Graphics & Text | Print | Product List | Glossary On
Versions: 1 2 3 4 5 6 7 8 9 10 11 12 13 14 15 16 17 18 19 20 21 22 23 24 25 26 27 28 29 30 31 32 33 34 35 36 37 38 39 40 41 42 43 44 45 46 47 48 49 50
000
ASUS43 KGLD 270408
RWRGLD

GOODLAND FORECAST AREA HOURLY WEATHER ROUNDUP
NATIONAL WEATHER SERVICE GOODLAND KS
900 PM MST SUN FEB 26 2017

...OFFICIAL OBSERVATIONS...

CITY           SKY/WX    TMP DP  RH WIND       PRES   REMARKS
GOODLAND KS    FAIR      26   7  44 SE10      29.85S WCI  16
HILL CITY KS   FAIR      19   6  57 E3        29.96R
IMPERIAL NEB   FAIR      20  13  74 SE6       29.89R
MCCOOK NEB     FAIR      22  10  60 E5        29.92R
AKRON CO       FAIR      23  11  60 SE8       29.81R
BURLINGTON CO  FAIR      25   7  46 SE14      29.83R WCI  13
LIMON CO       FAIR      22   5  48 S5        29.80R
$$

...UNOFFICIAL OBSERVATIONS...

CITY           SKY/WX    TMP DP  RH WIND       PRES   REMARKS
LENORA KS        N/A     31  32 100 E5          N/A
SHARON SPRINGS   N/A     26  10  49 SE15        N/A  WCI  14
TRIBUNE KS     FAIR      32  10  40 E12       29.88S
TRENTON NEB      N/A     25  32 100 E6          N/A
KIT CARSON CO    N/A     31   8  37 MISG        N/A
YUMA CO        FAIR      23  14  68 E7        29.84R
$$




USA.gov is the U.S. government's official web portal to all federal, state and local government web resources and services.